Lid_Strength_Index
2 2 2 2 2 2 3 3 3 3 2 2 2 3 3 3 3 3 3 3 3 3 3 2 2 1 3 8 7 4 -2 -2 -1 3 5 6 6 5 6 6 7 7 7 7 5 6 6
2 2 2 2 2 2 2 2 2 2 2 2 3 3 3 3 3 3 3 3 3 3 3 2 1 1 6 9 5 1 -0 0 2 4 5 5 5 4 5 6 7 7 7 7 5 6 6
1 2 2 2 2 2 2 2 2 2 3 3 3 3 3 3 3 3 3 4 4 3 3 2 1 1 6 7 3 2 3 3 3 4 5 5 4 5 5 6 7 7 8 6 6 6 7
1 1 2 2 2 2 2 2 2 3 3 3 3 3 3 3 4 4 4 4 4 3 2 2 1 3 7 4 3 2 3 4 3 3 4 3 3 4 5 6 7 8 7 9 6 7 6
1 1 1 2 2 2 2 2 2 3 3 3 3 3 3 4 4 4 4 4 3 2 1 1 3 5 7 1 3 3 3 4 4 4 3 3 4 5 5 8 9 8 10 9 8 6 7
1 2 1 1 1 2 2 2 2 3 3 3 3 3 4 4 4 4 4 4 1 1 1 1 2 6 4 5 3 4 4 3 4 4 4 5 5 5 6 8 11 10 10 9 9 7 7
2 2 2 2 2 2 2 2 2 2 3 3 3 3 3 4 4 5 5 3 5 6 3 7 7 6 5 3 3 4 4 4 4 4 6 6 7 8 8 8 8 8 9 9 8 6 8
1 2 2 2 2 2 2 2 2 3 3 3 3 4 4 4 5 5 5 6 7 5 7 5 5 6 5 4 5 5 3 5 5 7 6 6 8 7 8 8 8 8 9 9 7 7 7
1 2 2 2 2 2 2 3 3 3 3 3 4 4 4 4 5 6 6 5 4 4 7 7 5 5 5 4 5 6 4 5 6 7 7 8 7 8 8 8 8 8 9 9 9 8 8
1 2 2 2 2 2 2 2 3 3 4 4 3 4 5 6 7 6 6 4 3 3 7 7 6 5 4 4 5 3 4 5 6 7 7 7 7 8 8 8 8 9 7 8 9 9 12
2 2 2 2 2 2 3 3 3 3 4 4 4 5 6 6 6 5 4 4 5 6 12 7 6 3 4 5 5 5 4 5 7 8 7 8 8 9 8 7 7 8 7 8 9 10 10
2 2 2 2 2 3 3 3 3 4 4 5 5 5 6 7 6 5 4 4 5 9 13 8 6 6 6 6 6 5 5 4 5 7 7 7 6 6 6 6 7 6 7 8 8 9 12
2 2 2 2 3 3 3 4 4 4 5 5 6 6 5 5 5 3 4 5 9 11 8 9 8 7 7 7 7 6 7 7 7 10 9 8 7 6 6 7 7 7 8 11 12 12 12
2 2 2 2 3 3 3 4 4 4 5 5 7 6 5 5 3 4 5 7 12 9 9 8 8 7 8 7 7 7 7 8 7 8 9 10 10 8 7 7 8 8 8 11 14 13 12
2 2 2 3 3 3 3 4 4 4 4 6 7 5 4 3 4 4 6 9 10 8 8 9 8 9 9 8 8 8 8 8 7 7 9 10 10 8 7 7 7 9 9 8 10 11 11
2 2 2 3 3 3 3 3 4 4 5 7 4 4 3 3 3 5 7 11 8 7 7 8 10 9 10 9 8 9 9 8 7 7 6 8 10 8 8 7 8 8 7 10 9 13 14
2 2 2 3 3 2 3 3 4 4 5 7 4 4 3 3 4 5 8 8 8 6 6 8 9 9 8 9 8 9 9 7 6 7 8 8 8 8 7 8 9 9 9 10 9 10 12
2 2 2 3 3 3 3 3 4 4 7 7 4 6 2 4 6 8 7 8 9 6 6 7 6 7 8 8 8 8 9 8 6 6 9 8 9 10 9 7 7 9 9 8 10 12 11
2 3 3 3 3 3 3 4 4 5 6 6 5 4 2 4 8 8 7 7 7 6 7 7 7 6 7 8 9 8 8 6 6 6 8 8 9 11 10 8 7 8 8 8 8 9 12
2 2 3 3 3 3 3 4 5 5 5 5 5 7 4 5 6 7 8 8 8 6 7 7 7 6 7 8 7 9 8 7 7 6 5 6 9 10 12 10 9 10 9 8 8 11 11
2 2 3 3 3 3 3 4 5 5 6 3 6 8 7 8 7 7 7 8 8 8 7 6 7 7 8 9 9 9 8 7 6 5 6 6 10 9 9 8 9 9 9 9 9 9 10
2 2 2 3 3 3 3 4 4 5 6 4 6 7 7 7 7 7 9 8 8 7 7 8 8 7 7 8 8 9 8 8 8 6 7 6 10 10 10 9 9 10 9 8 8 9 9
3 2 2 3 3 3 3 3 4 5 5 5 5 4 5 8 7 7 8 8 8 7 7 6 6 7 7 7 6 5 6 6 6 7 7 8 9 11 12 10 10 12 9 9 8 8 8
3 3 2 3 3 3 3 3 4 5 6 5 6 5 7 9 7 8 8 7 7 7 8 6 5 7 6 4 5 6 6 7 7 7 7 8 9 10 11 11 15 10 8 8 8 9 8
3 3 2 3 3 3 3 3 4 4 5 5 6 5 6 8 7 7 7 7 6 6 7 6 5 5 4 5 7 9 8 9 8 8 8 7 8 10 12 12 10 10 9 10 10 10 8
3 3 3 3 3 3 3 3 4 4 5 5 6 6 5 7 8 6 8 7 8 7 7 6 5 4 5 6 8 12 12 11 11 10 7 8 8 9 11 13 14 11 8 6 7 12 8
4 4 4 3 3 3 3 4 4 4 5 6 6 6 6 8 7 7 7 8 7 7 7 7 6 6 6 8 10 11 11 9 12 12 11 10 10 11 11 12 10 8 7 6 13 12 7
4 5 5 4 4 3 3 3 3 4 4 6 6 6 7 8 7 6 6 6 7 7 9 7 7 7 7 9 10 10 11 9 11 10 10 11 12 12 12 14 15 7 7 10 8 6 6
4 4 4 5 5 4 3 3 4 4 5 6 7 7 6 7 7 6 5 4 4 4 6 6 7 7 6 8 8 8 10 9 10 12 8 11 9 10 10 10 7 6 7 5 5 6 5